TimeCDT,TemperatureF,Dew PointF,Humidity,Sea Level PressureIn,VisibilityMPH,Wind Direction,Wind SpeedMPH,Gust SpeedMPH,PrecipitationIn,Events,Conditions,WindDirDegrees,DateUTC
12:15 AM,61.3,47.5,60,30.04,10.0,SSE,10.4,-,N/A,,Clear,150,2013-09-14 05:15:00
12:35 AM,61.0,47.7,62,30.04,10.0,SSE,9.2,-,N/A,,Clear,160,2013-09-14 05:35:00
12:55 AM,60.8,47.8,62,30.04,10.0,SSE,8.1,-,N/A,,Clear,160,2013-09-14 05:55:00
1:15 AM,60.4,48.2,64,30.04,10.0,SSE,9.2,-,N/A,,Clear,160,2013-09-14 06:15:00
1:35 AM,60.3,48.2,64,30.04,10.0,SSE,6.9,-,N/A,,Clear,160,2013-09-14 06:35:00
1:55 AM,60.8,48.4,64,30.04,10.0,South,8.1,-,N/A,,Mostly Cloudy,170,2013-09-14 06:55:00
2:15 AM,62.4,48.4,60,30.04,10.0,South,10.4,-,N/A,,Overcast,170,2013-09-14 07:15:00
2:35 AM,62.8,48.6,60,30.04,10.0,South,10.4,-,N/A,,Overcast,170,2013-09-14 07:35:00
2:55 AM,63.0,48.7,60,30.03,10.0,South,9.2,-,N/A,,Mostly Cloudy,170,2013-09-14 07:55:00
3:15 AM,63.0,48.7,60,30.02,10.0,South,11.5,-,N/A,,Scattered Clouds,170,2013-09-14 08:15:00
3:35 AM,62.6,49.1,61,30.02,10.0,South,10.4,-,N/A,,Clear,170,2013-09-14 08:35:00
3:55 AM,62.4,48.7,61,30.01,10.0,SSE,11.5,-,N/A,,Clear,160,2013-09-14 08:55:00
4:15 AM,61.9,48.6,62,30.00,10.0,SSE,10.4,-,N/A,,Clear,160,2013-09-14 09:15:00
4:35 AM,62.2,48.2,60,30.00,10.0,SSE,12.7,-,N/A,,Clear,160,2013-09-14 09:35:00
4:55 AM,62.2,48.2,60,29.99,10.0,South,11.5,17.3,N/A,,Scattered Clouds,170,2013-09-14 09:55:00
5:15 AM,61.9,48.2,61,29.99,10.0,South,13.8,17.3,N/A,,Scattered Clouds,170,2013-09-14 10:15:00
5:35 AM,61.7,48.2,61,29.99,10.0,South,10.4,-,N/A,,Mostly Cloudy,170,2013-09-14 10:35:00
5:55 AM,61.9,48.0,60,29.99,10.0,South,11.5,-,N/A,,Mostly Cloudy,170,2013-09-14 10:55:00
6:15 AM,61.9,47.8,60,29.99,10.0,South,11.5,19.6,N/A,,Overcast,170,2013-09-14 11:15:00
6:35 AM,62.1,47.8,60,29.98,10.0,South,12.7,-,N/A,,Overcast,170,2013-09-14 11:35:00
6:55 AM,62.4,47.3,58,29.98,10.0,South,12.7,19.6,N/A,,Overcast,170,2013-09-14 11:55:00
7:15 AM,62.1,47.5,59,29.98,10.0,South,13.8,17.3,N/A,,Overcast,180,2013-09-14 12:15:00
7:35 AM,62.2,47.3,58,29.98,10.0,South,13.8,-,N/A,,Overcast,170,2013-09-14 12:35:00
7:55 AM,62.2,47.3,58,29.98,10.0,South,12.7,19.6,N/A,,Overcast,180,2013-09-14 12:55:00
8:15 AM,59.9,50.0,70,29.98,10.0,South,11.5,-,N/A,,Light Drizzle,170,2013-09-14 13:15:00
8:35 AM,60.6,49.8,68,29.98,10.0,South,12.7,17.3,N/A,,Overcast,170,2013-09-14 13:35:00
8:55 AM,61.3,49.5,65,29.97,10.0,South,13.8,19.6,N/A,,Mostly Cloudy,170,2013-09-14 13:55:00
9:15 AM,61.9,49.5,64,29.96,10.0,South,11.5,17.3,N/A,,Mostly Cloudy,170,2013-09-14 14:15:00
9:35 AM,63.7,48.9,59,29.96,10.0,South,16.1,19.6,N/A,,Scattered Clouds,180,2013-09-14 14:35:00
9:55 AM,63.1,49.3,61,29.96,10.0,South,18.4,27.6,N/A,Rain,Light Rain,180,2013-09-14 14:55:00
10:15 AM,64.0,49.6,59,29.95,10.0,South,17.3,-,N/A,,Mostly Cloudy,180,2013-09-14 15:15:00
10:35 AM,65.5,49.3,56,29.95,10.0,South,18.4,24.2,N/A,,Scattered Clouds,190,2013-09-14 15:35:00
10:55 AM,66.2,49.3,54,29.95,10.0,South,16.1,23.0,N/A,,Scattered Clouds,190,2013-09-14 15:55:00
11:15 AM,67.1,49.1,52,29.94,10.0,South,19.6,25.3,N/A,,Scattered Clouds,180,2013-09-14 16:15:00
11:35 AM,68.0,49.5,51,29.93,10.0,South,19.6,24.2,N/A,,Mostly Cloudy,180,2013-09-14 16:35:00
11:55 AM,69.6,48.9,48,29.93,10.0,South,21.9,27.6,N/A,,Mostly Cloudy,190,2013-09-14 16:55:00
12:15 PM,70.3,48.7,46,29.92,10.0,South,21.9,27.6,N/A,,Mostly Cloudy,190,2013-09-14 17:15:00
12:35 PM,71.8,49.5,45,29.91,10.0,South,21.9,27.6,N/A,,Overcast,190,2013-09-14 17:35:00
12:55 PM,71.8,49.3,45,29.90,10.0,South,19.6,27.6,N/A,,Mostly Cloudy,190,2013-09-14 17:55:00
1:15 PM,72.5,50.2,45,29.90,10.0,South,20.7,31.1,N/A,,Mostly Cloudy,190,2013-09-14 18:15:00
1:35 PM,72.5,50.5,46,29.89,10.0,South,21.9,26.5,N/A,,Mostly Cloudy,180,2013-09-14 18:35:00
1:55 PM,73.2,51.1,46,29.88,10.0,South,26.5,33.4,N/A,,Mostly Cloudy,180,2013-09-14 18:55:00
2:15 PM,74.7,51.3,44,29.88,10.0,South,21.9,29.9,N/A,,Mostly Cloudy,170,2013-09-14 19:15:00
2:35 PM,75.2,51.8,44,29.87,10.0,South,20.7,27.6,N/A,,Scattered Clouds,180,2013-09-14 19:35:00
2:55 PM,75.7,52.2,44,29.86,10.0,South,20.7,29.9,N/A,,Clear,190,2013-09-14 19:55:00
3:15 PM,77.0,52.9,43,29.86,10.0,South,19.6,27.6,N/A,,Clear,190,2013-09-14 20:15:00
3:35 PM,77.9,52.9,42,29.85,10.0,South,19.6,28.8,N/A,,Clear,190,2013-09-14 20:35:00
3:55 PM,75.7,52.9,45,29.85,10.0,SSW,21.9,27.6,N/A,,Clear,210,2013-09-14 20:55:00
4:15 PM,75.7,53.6,46,29.84,10.0,SSW,19.6,26.5,N/A,,Clear,200,2013-09-14 21:15:00
4:35 PM,77.0,53.6,44,29.84,10.0,SSW,16.1,26.5,N/A,,Clear,200,2013-09-14 21:35:00
4:55 PM,77.9,54.5,44,29.83,10.0,SSW,16.1,26.5,N/A,,Clear,200,2013-09-14 21:55:00
5:15 PM,76.8,54.7,46,29.83,10.0,SSW,18.4,23.0,N/A,,Clear,200,2013-09-14 22:15:00
5:35 PM,77.4,55.0,46,29.83,10.0,SSW,13.8,23.0,N/A,,Clear,200,2013-09-14 22:35:00
5:55 PM,77.0,55.0,47,29.83,10.0,South,16.1,-,N/A,,Clear,190,2013-09-14 22:55:00
6:15 PM,75.9,55.4,49,29.83,10.0,SSW,12.7,-,N/A,,Clear,200,2013-09-14 23:15:00
6:35 PM,74.5,55.8,52,29.83,10.0,South,13.8,-,N/A,,Clear,190,2013-09-14 23:35:00
6:55 PM,75.4,55.9,51,29.82,10.0,South,18.4,24.2,N/A,,Clear,190,2013-09-14 23:55:00
7:15 PM,74.1,56.5,54,29.82,10.0,South,12.7,-,N/A,,Clear,170,2013-09-15 00:15:00
7:35 PM,72.1,56.8,58,29.82,10.0,South,10.4,18.4,N/A,,Clear,170,2013-09-15 00:35:00
7:55 PM,70.9,57.0,61,29.82,10.0,South,10.4,-,N/A,,Clear,180,2013-09-15 00:55:00
8:15 PM,70.0,57.2,64,29.82,10.0,South,11.5,-,N/A,,Clear,170,2013-09-15 01:15:00
8:35 PM,69.6,57.6,65,29.82,10.0,South,8.1,-,N/A,,Clear,170,2013-09-15 01:35:00
8:55 PM,68.9,58.1,68,29.83,10.0,South,9.2,-,N/A,,Clear,170,2013-09-15 01:55:00
9:15 PM,68.5,58.3,70,29.84,10.0,South,9.2,-,N/A,,Clear,180,2013-09-15 02:15:00
9:35 PM,69.4,58.5,68,29.84,10.0,South,10.4,-,N/A,,Clear,190,2013-09-15 02:35:00
9:55 PM,68.9,58.3,69,29.83,10.0,South,10.4,-,N/A,,Clear,190,2013-09-15 02:55:00
10:15 PM,68.5,58.5,70,29.84,10.0,South,9.2,-,N/A,,Clear,190,2013-09-15 03:15:00
10:35 PM,68.0,58.5,71,29.85,10.0,SSW,6.9,-,N/A,,Scattered Clouds,200,2013-09-15 03:35:00
10:55 PM,67.8,58.8,73,29.85,10.0,SSW,6.9,-,N/A,,Mostly Cloudy,200,2013-09-15 03:55:00
11:15 PM,68.4,59.0,72,29.86,10.0,SSW,6.9,-,N/A,,Mostly Cloudy,210,2013-09-15 04:15:00
11:35 PM,68.5,59.0,72,29.87,10.0,SSW,6.9,-,N/A,,Mostly Cloudy,210,2013-09-15 04:35:00
11:55 PM,67.5,59.0,74,29.87,10.0,SSW,9.2,-,N/A,,Scattered Clouds,210,2013-09-15 04:55:00